Location: Albany
(35.0000°S, 118.0000°E)
Time: 08:00:00
(UTC-05:00)

ADEOS Rocket - Visible Passes

Search period start: 07 February 2016 00:00
Search period end: 17 February 2016 00:00
Orbit: 858 x 1308 km, 98.7° (Epoch: 06 February)

Date Brightness Start Highest point End Pass type
(mag) Time Alt. Az. Time Alt. Az. Time Alt. Az.
07 Feb 6.8 07:00:55 10° SSW 07:03:48 12° SW 07:06:38 10° WSW visible
07 Feb 4.7 15:22:33 10° NE 15:28:41 43° ESE 15:35:30 10° S visible
08 Feb 6.0 14:36:00 10° ENE 14:40:33 19° ESE 14:45:21 10° SSE visible
09 Feb 6.9 07:10:24 10° SW 07:11:21 10° SW 07:12:18 10° WSW visible
09 Feb 4.4 15:29:58 10° NE 15:36:21 50° ESE 15:43:26 10° S visible
10 Feb 5.8 14:43:02 10° ENE 14:48:08 23° ESE 14:53:34 10° SSE visible
11 Feb 4.1 15:37:26 10° NNE 15:44:03 58° ESE 15:51:22 10° S visible
12 Feb 6.3 06:25:48 10° SSW 06:31:10 21° WSW 06:36:20 10° WNW visible
12 Feb 5.6 14:50:11 10° ENE 14:55:45 26° ESE 15:01:42 10° S visible
13 Feb 6.5 14:05:50 10° ESE 14:07:52 11° SE 14:09:57 10° SE visible
13 Feb 3.9 15:44:59 10° NNE 15:51:45 68° ESE 15:59:15 10° S visible
14 Feb 6.4 06:34:03 10° SSW 06:38:47 18° WSW 06:43:20 10° W visible
14 Feb 5.3 14:57:26 10° ENE 15:03:22 31° ESE 15:09:46 10° S visible
15 Feb 6.3 14:12:07 10° E 14:15:26 14° SE 14:18:50 10° SSE visible
15 Feb 3.7 15:52:34 10° NNE 15:59:28 78° ESE 16:07:08 10° S visible
16 Feb 6.5 06:42:26 10° SSW 06:46:22 15° WSW 06:50:10 10° W visible
16 Feb 5.1 15:04:44 10° NE 15:11:02 36° ESE 15:17:48 10° S visible
